This is the latest recevied weather packets stored in our database for station/object K9ZOG. If no packets are shown the sender has not sent any weather packets the latest 10 day(s).
| Time | Temp. | Humidity | Pressure | Rain* | Wind** | Luminosity | Snow |
|---|---|---|---|---|---|---|---|
| 1777744752 | 8.89° C | 52% | 1019 hPa | 0 mm | - | 831 W/m² | - |
| 1777744453 | 8.89° C | 51% | 1019.1 hPa | 0 mm | - | 950 W/m² | - |
| 1777744155 | 8.89° C | 53% | 1019 hPa | 0 mm | - | 889 W/m² | - |
| 1777743853 | 8.33° C | 52% | 1019.1 hPa | 0 mm | - | 321 W/m² | - |
| 1777743553 | 8.33° C | 53% | 1019 hPa | 0 mm | - | 669 W/m² | - |
| 1777743254 | 8.33° C | 50% | 1019.1 hPa | 0 mm | - | 269 W/m² | - |
| 1777742953 | 8.33° C | 49% | 1019 hPa | 0 mm | - | 959 W/m² | - |
| 1777742652 | 8.33° C | 50% | 1019.1 hPa | 0 mm | - | 571 W/m² | - |
| 1777742352 | 8.33° C | 52% | 1019.1 hPa | 0 mm | - | 230 W/m² | - |
| 1777742052 | 8.33° C | 52% | 1019.1 hPa | 0 mm | - | 101 W/m² | - |
| 1777741752 | 8.33° C | 50% | 1019.2 hPa | 0 mm | - | 104 W/m² | - |
| 1777741453 | 8.33° C | 53% | 1019.1 hPa | 0 mm | - | 122 W/m² | - |
| 1777741153 | 8.33° C | 54% | 1019.1 hPa | 0 mm | - | 126 W/m² | - |
| 1777740853 | 8.33° C | 52% | 1019.1 hPa | 0 mm | - | 92 W/m² | - |
| 1777740553 | 8.33° C | 52% | 1019.1 hPa | 0 mm | - | 93 W/m² | - |
| 1777740252 | 8.33° C | 51% | 1019.2 hPa | 0 mm | - | 99 W/m² | - |
| 1777739953 | 8.33° C | 53% | 1019.3 hPa | 0 mm | - | 116 W/m² | - |
| 1777739652 | 8.33° C | 51% | 1019.2 hPa | 0 mm | - | 141 W/m² | - |
| 1777739354 | 8.33° C | 53% | 1019.2 hPa | 0 mm | - | 114 W/m² | - |
| 1777739053 | 8.33° C | 53% | 1019.3 hPa | 0 mm | - | 292 W/m² | - |
| 1777738753 | 8.33° C | 52% | 1019.3 hPa | 0 mm | - | 213 W/m² | - |
| 1777738452 | 8.33° C | 55% | 1019.3 hPa | 0 mm | - | 789 W/m² | - |
| 1777738153 | 8.33° C | 53% | 1019.4 hPa | 0 mm | - | 901 W/m² | - |
| 1777737853 | 8.33° C | 52% | 1019.3 hPa | 0 mm | - | 857 W/m² | - |
| 1777737552 | 8.33° C | 55% | 1019.4 hPa | 0 mm | - | 890 W/m² | - |
* Rain latest hour (hover to see other rain measurements)
** Current wind speed in m/s (hover to see current wind gust speed)